This demonstration page uses our WeatherBlox Daily Observations layout. Learn more.

Left ArrowRight Arrow

30.21309, -93.2044

Hourly Observations for March 26, 2015

Temp ( °F °C ) Dew Point ( °F °C ) Humidity (%) Winds ( mph kmh ) Pressure ( in mb ) Visibility ( mi km ) Precip ( " mm )
12:15 am 00:15 Clear 59 14.9 58 14.6 98 98 Calm 29.94 1014 7 11 0.00 0.00
12:35 am 00:35 Clear 60 15.4 59 15.1 98 98 S 3 6 29.91 1013 10 16 0.00 0.00
12:55 am 00:55 Clear 60 15.6 60 15.3 98 98 Calm 29.94 1014 7 11 0.00 0.00
1:15 am 01:15 Clear with Mist and Fog 61 16.1 61 16 99 99 Calm 29.91 1013 5 8 0.00 0.00
1:35 am 01:35 Clear with Mist and Fog 59 15.1 59 14.9 99 99 SSE 3 6 29.91 1013 3 5 0.00 0.00
1:55 am 01:55 Clear with Mist and Fog 61 16 61 16 100 100 Calm 29.91 1013 5 8 0.00 0.00
2:15 am 02:15 Clear with Mist and Fog 60 15.7 60 15.6 99 99 SSE 3 6 29.91 1013 4 6 0.00 0.00
2:35 am 02:35 Clear with Mist and Fog 60 15.8 60 15.7 99 99 Calm 29.88 1012 3 4 0.00 0.00
2:55 am 02:55 Mostly Cloudy with Fog 60 15.8 60 15.7 99 99 Calm 29.88 1012 1 1 0.00 0.00
3:15 am 03:15 Mostly Cloudy with Mist and Fog 60 15.6 60 15.5 99 99 Calm 29.88 1012 2 3 0.00 0.00
3:35 am 03:35 Mostly Cloudy with Fog 60 15.6 60 15.5 99 99 Calm 29.88 1012 0 0 0.00 0.00
3:55 am 03:55 Cloudy with Fog 58 14.7 58 14.7 100 100 Calm 29.88 1012 0 0 0.00 0.00
4:15 am 04:15 Cloudy with Fog 60 15.5 60 15.5 100 100 Calm 29.88 1012 1 1 0.00 0.00
4:35 am 04:35 Cloudy with Mist and Fog 61 16.3 61 16.2 99 99 Calm 29.88 1012 1 2 0.00 0.00
4:55 am 04:55 Cloudy with Mist and Fog 62 16.5 62 16.5 100 100 Calm 29.88 1012 5 8 0.00 0.00
5:15 am 05:15 Cloudy with Mist and Fog 61 16.2 61 16.2 100 100 Calm 29.88 1012 3 4 0.00 0.00
6:00 am 06:00 Cloudy with Mist and Fog 63 17 63 17 100 100 Calm 29.88 1012 2 3 0.00 0.00
6:55 am 06:55 Mostly Cloudy with Mist and Fog 63 17 63 17 100 100 Calm 29.91 1013 4 6 0.00 0.00
7:27 am 07:27 Mostly Cloudy with Mist and Fog 63 17 63 17 100 100 Calm 29.94 1014 5 8 0.00 0.00
7:45 am 07:45 Mostly Cloudy with Mist and Fog 63 17 63 17 100 100 Calm 29.94 1014 5 8 0.00 0.00
8:45 am 08:45 Mostly Cloudy with Mist and Fog 63 17 63 17 100 100 Calm 29.94 1014 5 8 0.00 0.00
11:55 am 11:55 Cloudy 72 22 66 19 83 83 WNW 13 20 29.91 1013 10 16 0.00 0.00
12:50 pm 12:50 Cloudy 72 22 64 18 78 78 NW 10 17 29.88 1012 10 16 0.00 0.00
1:50 pm 13:50 Cloudy 70 21 64 18 83 83 NNW 13 20 29.88 1012 10 16 0.00 0.00
2:50 pm 14:50 Cloudy 72 22 64 18 78 78 NNW 9 15 29.88 1012 10 16 0.00 0.00
3:50 pm 15:50 Cloudy 64 18 61 16 88 88 NNW 20 31 29.91 1013 10 16 0.00 0.00
5:50 pm 17:50 Cloudy 64 18 55 13 73 73 NW 18 30 29.91 1013 10 16 0.00 0.00
6:50 pm 18:50 Cloudy 61 16 54 12 77 77 NNW 16 26 29.94 1014 10 16 0.00 0.00
7:50 pm 19:50 Cloudy 59 15 52 11 77 77 NNW 15 24 29.97 1015 10 16 0.00 0.00
8:50 pm 20:50 Cloudy 57 14 52 11 82 82 NNW 15 24 30.00 1016 10 16 0.00 0.00
9:50 pm 21:50 Cloudy 57 14 52 11 82 82 NNW 16 26 30.03 1017 10 16 0.00 0.00
10:15 pm 22:15 Cloudy 57 14.1 51 10.7 80 80 N 15 24 30.03 1017 10 16 0.00 0.00
10:35 pm 22:35 Cloudy 57 14 51 10.5 80 80 N 15 24 30.03 1017 10 16 0.00 0.00
10:55 pm 22:55 Cloudy 57 14 50 10.2 78 78 NNW 13 20 30.06 1018 10 16 0.00 0.00
11:15 pm 23:15 Cloudy 57 13.8 50 10 78 78 N 15 24 30.06 1018 10 16 0.00 0.00
11:35 pm 23:35 Cloudy 56 13.5 49 9.5 77 77 N 14 22 30.06 1018 10 16 0.00 0.00
11:55 pm 23:55 Partly Cloudy 55 13 47 8.5 74 74 N 12 19 30.06 1018 10 16 0.00 0.00

Powered by AerisWeather